| time (UTC) | temp C | wind direction | speed KPH | gust KPH | rain 1hr cm | rain 24hr cm | rain mn cm | humidity % | barometer mb |
| 20260504100501 | 4 | 219 | 0.0 | 0.0 | 0.00 | 0.00 | 0.00 | 88 | 1016.9 |
| 20260504081937 | 5 | 219 | 0.0 | 0.0 | 0.00 | 0.00 | 0.00 | 87 | 1016.8 |
| 20260504081436 | 5 | 219 | 0.0 | 0.0 | 0.00 | 0.00 | 0.00 | 87 | 1016.8 |
| 20260504080934 | 5 | 219 | 0.0 | 3.2 | 0.00 | 0.00 | 0.00 | 87 | 1016.7 |
| 20260504080436 | 5 | 219 | 0.0 | 3.2 | 0.00 | 0.00 | 0.00 | 87 | 1016.8 |
| 20260504080207 | 5 | 219 | 0.0 | 4.8 | 0.00 | 0.00 | 0.00 | 87 | 1016.8 |
| 20260504050408 | 5 | 238 | 0.0 | 0.0 | 0.00 | 0.00 | 0.00 | 80 | 1016.7 |
| 20260504045906 | 5 | 237 | 0.0 | 0.0 | 0.00 | 0.00 | 0.00 | 79 | 1016.7 |
| 20260504045406 | 5 | 237 | 0.0 | 4.8 | 0.00 | 0.00 | 0.00 | 79 | 1016.8 |
| 20260504044901 | 5 | 251 | 0.0 | 4.8 | 0.00 | 0.00 | 0.00 | 79 | 1016.8 |
| 20260504044640 | 5 | 252 | 1.6 | 4.8 | 0.00 | 0.00 | 0.00 | 79 | 1016.7 |
| 20260504043902 | 5 | 252 | 0.0 | 4.8 | 0.00 | 0.00 | 0.00 | 78 | 1016.8 |
| 20260504043401 | 5 | 252 | 0.0 | 0.0 | 0.00 | 0.00 | 0.00 | 76 | 1016.7 |
| 20260504042901 | 5 | 252 | 0.0 | 0.0 | 0.00 | 0.00 | 0.00 | 76 | 1016.5 |
| 20260504042401 | 5 | 252 | 0.0 | 0.0 | 0.00 | 0.00 | 0.00 | 76 | 1016.5 |
| 20260504041901 | 5 | 252 | 0.0 | 1.6 | 0.00 | 0.00 | 0.00 | 75 | 1016.4 |
| 20260504041403 | 5 | 252 | 0.0 | 1.6 | 0.00 | 0.00 | 0.00 | 75 | 1016.4 |
| 20260504040901 | 5 | 252 | 0.0 | 1.6 | 0.00 | 0.00 | 0.00 | 75 | 1016.3 |
| 20260504040402 | 5 | 252 | 0.0 | 3.2 | 0.00 | 0.00 | 0.00 | 75 | 1016.3 |
| 20260504035858 | 6 | 252 | 0.0 | 3.2 | 0.00 | 0.00 | 0.00 | 75 | 1016.3 |
| 20260504035400 | 6 | 252 | 0.0 | 0.0 | 0.00 | 0.00 | 0.00 | 75 | 1016.2 |
| 20260504034859 | 6 | 252 | 0.0 | 0.0 | 0.00 | 0.00 | 0.00 | 74 | 1016.2 |
| 20260504034400 | 6 | 252 | 0.0 | 0.0 | 0.00 | 0.00 | 0.00 | 74 | 1016.3 |
| 20260504033900 | 6 | 252 | 0.0 | 0.0 | 0.00 | 0.00 | 0.00 | 73 | 1016.2 |
| 20260504033400 | 6 | 252 | 0.0 | 0.0 | 0.00 | 0.00 | 0.00 | 73 | 1016.3 |
| 20260504032901 | 6 | 252 | 0.0 | 0.0 | 0.00 | 0.00 | 0.00 | 72 | 1016.3 |
| 20260504032357 | 6 | 252 | 0.0 | 0.0 | 0.00 | 0.00 | 0.00 | 72 | 1016.2 |
| 20260504031856 | 6 | 252 | 0.0 | 0.0 | 0.00 | 0.00 | 0.00 | 72 | 1016.2 |
| 20260504031351 | 6 | 252 | 0.0 | 0.0 | 0.00 | 0.00 | 0.00 | 71 | 1016.1 |
| 20260504030844 | 6 | 252 | 0.0 | 0.0 | 0.00 | 0.00 | 0.00 | 70 | 1016.2 |
| 20260504030340 | 6 | 252 | 0.0 | 0.0 | 0.00 | 0.00 | 0.00 | 70 | 1016.1 |
| 20260504025839 | 6 | 252 | 0.0 | 0.0 | 0.00 | 0.00 | 0.00 | 70 | 1016.1 |
| 20260504025338 | 6 | 252 | 0.0 | 0.0 | 0.00 | 0.00 | 0.00 | 70 | 1016.1 |
| 20260504024836 | 6 | 252 | 0.0 | 0.0 | 0.00 | 0.00 | 0.00 | 69 | 1016.1 |
| 20260504024333 | 6 | 252 | 0.0 | 0.0 | 0.00 | 0.00 | 0.00 | 69 | 1016.2 |
| 20260504023832 | 7 | 252 | 0.0 | 0.0 | 0.00 | 0.00 | 0.00 | 69 | 1016.2 |
| 20260504023601 | 7 | 252 | 0.0 | 0.0 | 0.00 | 0.00 | 0.00 | 69 | 1016.2 |
| 20260504022831 | 7 | 252 | 0.0 | 0.0 | 0.00 | 0.00 | 0.00 | 69 | 1016.1 |
| 20260504022329 | 7 | 252 | 0.0 | 0.0 | 0.00 | 0.00 | 0.00 | 68 | 1016.1 |
| 20260504021829 | 7 | 252 | 0.0 | 0.0 | 0.00 | 0.00 | 0.00 | 67 | 1016.0 |
| 20260504021329 | 7 | 252 | 0.0 | 0.0 | 0.00 | 0.00 | 0.00 | 67 | 1016.0 |
| 20260504021105 | 7 | 252 | 0.0 | 0.0 | 0.00 | 0.00 | 0.00 | 67 | 1016.1 |
| 20260504020329 | 7 | 252 | 0.0 | 0.0 | 0.00 | 0.00 | 0.00 | 67 | 1016.1 |
| 20260504015329 | 7 | 252 | 0.0 | 0.0 | 0.00 | 0.00 | 0.00 | 67 | 1016.0 |
| 20260504014830 | 7 | 252 | 0.0 | 0.0 | 0.00 | 0.00 | 0.00 | 65 | 1016.0 |
| 20260504014329 | 8 | 252 | 0.0 | 0.0 | 0.00 | 0.00 | 0.00 | 64 | 1015.8 |
| 20260504014100 | 8 | 252 | 0.0 | 0.0 | 0.00 | 0.00 | 0.00 | 64 | 1015.8 |
| 20260504013604 | 8 | 252 | 0.0 | 0.0 | 0.00 | 0.00 | 0.00 | 63 | 1015.8 |
| 20260504012830 | 8 | 252 | 0.0 | 0.0 | 0.00 | 0.00 | 0.00 | 64 | 1015.9 |
| 20260504012329 | 8 | 252 | 0.0 | 0.0 | 0.00 | 0.00 | 0.00 | 62 | 1015.9 |
| 20260504011830 | 8 | 252 | 0.0 | 0.0 | 0.00 | 0.00 | 0.00 | 61 | 1015.7 |
| 20260504011334 | 8 | 252 | 0.0 | 0.0 | 0.00 | 0.00 | 0.00 | 62 | 1015.7 |
| 20260504010830 | 9 | 252 | 0.0 | 0.0 | 0.00 | 0.00 | 0.00 | 59 | 1015.6 |
| 20260504010331 | 9 | 252 | 0.0 | 0.0 | 0.00 | 0.00 | 0.00 | 57 | 1015.4 |
| 20260504005830 | 9 | 252 | 0.0 | 0.0 | 0.00 | 0.00 | 0.00 | 56 | 1015.4 |
| 20260504005330 | 10 | 252 | 0.0 | 0.0 | 0.00 | 0.00 | 0.00 | 54 | 1015.3 |
| 20260504004829 | 10 | 252 | 0.0 | 0.0 | 0.00 | 0.00 | 0.00 | 55 | 1015.4 |
| 20260504004611 | 11 | 252 | 0.0 | 0.0 | 0.00 | 0.00 | 0.00 | 53 | 1015.3 |
| 20260504004606 | 10 | 252 | 0.0 | 0.0 | 0.00 | 0.00 | 0.00 | 55 | 1015.2 |
| 20260504003329 | 11 | 252 | 0.0 | 0.0 | 0.00 | 0.00 | 0.00 | 51 | 1015.2 |
| 20260504002843 | 11 | 252 | 0.0 | 0.0 | 0.00 | 0.00 | 0.00 | 47 | 1015.0 |
| 20260504002836 | 11 | 252 | 0.0 | 0.0 | 0.00 | 0.00 | 0.00 | 50 | 1015.0 |
| 20260504001830 | 12 | 252 | 0.0 | 0.0 | 0.00 | 0.00 | 0.00 | 46 | 1014.9 |
| 20260504001612 | 12 | 252 | 0.0 | 0.0 | 0.00 | 0.00 | 0.00 | 44 | 1014.8 |
| 20260504001333 | 12 | 252 | 0.0 | 0.0 | 0.00 | 0.00 | 0.00 | 44 | 1014.8 |
| 20260504000323 | 12 | 252 | 0.0 | 4.8 | 0.00 | 0.00 | 0.00 | 44 | 1014.7 |
| 20260503235817 | 12 | 252 | 1.6 | 4.8 | 0.00 | 0.00 | 0.00 | 43 | 1014.7 |
| 20260503235316 | 12 | 252 | 1.6 | 4.8 | 0.00 | 0.00 | 0.00 | 43 | 1014.6 |
| 20260503235050 | 12 | 252 | 1.6 | 4.8 | 0.00 | 0.00 | 0.00 | 44 | 1014.7 |
| 20260503234312 | 12 | 311 | 1.6 | 4.8 | 0.00 | 0.00 | 0.00 | 43 | 1014.7 |
| 20260503233813 | 13 | 267 | 1.6 | 8.0 | 0.00 | 0.00 | 0.00 | 42 | 1014.5 |
| 20260503233544 | 13 | 271 | 1.6 | 8.0 | 0.00 | 0.00 | 0.00 | 42 | 1014.5 |
| 20260503232810 | 13 | 250 | 1.6 | 9.7 | 0.00 | 0.00 | 0.00 | 41 | 1014.5 |
| 20260503232310 | 13 | 323 | 1.6 | 9.7 | 0.00 | 0.00 | 0.00 | 41 | 1014.4 |
| 20260503231805 | 13 | 266 | 1.6 | 6.4 | 0.00 | 0.00 | 0.00 | 42 | 1014.3 |
| 20260503231308 | 13 | 288 | 3.2 | 8.0 | 0.00 | 0.00 | 0.00 | 41 | 1014.4 |
| 20260503230806 | 13 | 258 | 3.2 | 8.0 | 0.00 | 0.00 | 0.00 | 39 | 1014.4 |
| 20260503230306 | 13 | 334 | 3.2 | 9.7 | 0.00 | 0.00 | 0.00 | 41 | 1014.4 |
| 20260503225806 | 13 | 294 | 3.2 | 9.7 | 0.00 | 0.00 | 0.00 | 40 | 1014.3 |
| 20260503225304 | 13 | 267 | 3.2 | 9.7 | 0.00 | 0.00 | 0.00 | 39 | 1014.3 |
| 20260503224805 | 13 | 263 | 3.2 | 9.7 | 0.00 | 0.00 | 0.00 | 37 | 1014.3 |
| 20260503224303 | 13 | 278 | 3.2 | 17.7 | 0.00 | 0.00 | 0.00 | 39 | 1014.4 |
| 20260503223804 | 13 | 82 | 4.8 | 17.7 | 0.00 | 0.00 | 0.00 | 37 | 1014.3 |
| 20260503223543 | 13 | 338 | 4.8 | 17.7 | 0.00 | 0.00 | 0.00 | 37 | 1014.3 |
| 20260503222801 | 13 | 270 | 6.4 | 37.0 | 0.00 | 0.00 | 0.00 | 37 | 1014.3 |
| 20260503222304 | 13 | 12 | 6.4 | 37.0 | 0.00 | 0.00 | 0.00 | 36 | 1014.3 |
| 20260503221801 | 14 | 295 | 6.4 | 24.1 | 0.00 | 0.00 | 0.00 | 37 | 1014.4 |
| 20260503221302 | 14 | 290 | 4.8 | 17.7 | 0.00 | 0.00 | 0.00 | 37 | 1014.3 |
| 20260503220801 | 14 | 321 | 4.8 | 14.5 | 0.00 | 0.00 | 0.00 | 37 | 1014.4 |
| 20260503220301 | 14 | 310 | 4.8 | 16.1 | 0.00 | 0.00 | 0.00 | 35 | 1014.4 |
| 20260503215801 | 14 | 255 | 4.8 | 16.1 | 0.00 | 0.00 | 0.00 | 35 | 1014.3 |
| 20260503215304 | 14 | 175 | 4.8 | 22.5 | 0.00 | 0.00 | 0.00 | 37 | 1014.3 |
| 20260503214801 | 14 | 355 | 6.4 | 22.5 | 0.00 | 0.00 | 0.00 | 35 | 1014.3 |
| 20260503214301 | 14 | 236 | 6.4 | 22.5 | 0.00 | 0.00 | 0.00 | 35 | 1014.3 |
| 20260503214034 | 14 | 298 | 6.4 | 22.5 | 0.00 | 0.00 | 0.00 | 34 | 1014.4 |
| 20260503213537 | 14 | 341 | 6.4 | 22.5 | 0.00 | 0.00 | 0.00 | 35 | 1014.4 |
| 20260503213036 | 14 | 304 | 9.7 | 22.5 | 0.00 | 0.00 | 0.00 | 36 | 1014.3 |
| 20260503212537 | 14 | 22 | 9.7 | 22.5 | 0.00 | 0.00 | 0.00 | 36 | 1014.3 |
| 20260503211801 | 14 | 340 | 8.0 | 20.9 | 0.00 | 0.00 | 0.00 | 34 | 1014.3 |
| 20260503211302 | 15 | 15 | 4.8 | 14.5 | 0.00 | 0.00 | 0.00 | 36 | 1014.2 |
| 20260503210802 | 15 | 337 | 4.8 | 14.5 | 0.00 | 0.00 | 0.00 | 36 | 1014.3 |
| 20260503210536 | 15 | 236 | 4.8 | 20.9 | 0.00 | 0.00 | 0.00 | 36 | 1014.3 |
| 20260503205802 | 15 | 296 | 6.4 | 20.9 | 0.00 | 0.00 | 0.00 | 36 | 1014.3 |
| 20260503205303 | 15 | 294 | 6.4 | 20.9 | 0.00 | 0.00 | 0.00 | 35 | 1014.3 |
| 20260503205040 | 15 | 319 | 4.8 | 20.9 | 0.00 | 0.00 | 0.00 | 36 | 1014.4 |
| 20260503204802 | 15 | 274 | 6.4 | 20.9 | 0.00 | 0.00 | 0.00 | 36 | 1014.3 |
| 20260503204544 | 15 | 319 | 4.8 | 20.9 | 0.00 | 0.00 | 0.00 | 36 | 1014.4 |
| 20260503204036 | 15 | 292 | 4.8 | 20.9 | 0.00 | 0.00 | 0.00 | 37 | 1014.4 |
| 20260503203301 | 15 | 244 | 6.4 | 30.6 | 0.00 | 0.00 | 0.00 | 36 | 1014.4 |
| 20260503202802 | 15 | 319 | 6.4 | 30.6 | 0.00 | 0.00 | 0.00 | 37 | 1014.4 |
| 20260503202539 | 15 | 302 | 6.4 | 22.5 | 0.00 | 0.00 | 0.00 | 36 | 1014.4 |
| 20260503201801 | 15 | 339 | 4.8 | 22.5 | 0.00 | 0.00 | 0.00 | 38 | 1014.5 |
| 20260503201302 | 14 | 288 | 6.4 | 22.5 | 0.00 | 0.00 | 0.00 | 38 | 1014.6 |
| 20260503200801 | 14 | 302 | 8.0 | 25.7 | 0.00 | 0.00 | 0.00 | 35 | 1014.7 |
| 20260503200301 | 14 | 263 | 8.0 | 25.7 | 0.00 | 0.00 | 0.00 | 36 | 1014.9 |
| 20260503195801 | 14 | 336 | 8.0 | 24.1 | 0.00 | 0.00 | 0.00 | 39 | 1014.7 |
| 20260503195301 | 13 | 317 | 6.4 | 17.7 | 0.00 | 0.00 | 0.00 | 39 | 1014.8 |
| 20260503194802 | 13 | 236 | 6.4 | 22.5 | 0.00 | 0.00 | 0.00 | 40 | 1014.9 |
| 20260503194258 | 13 | 196 | 4.8 | 27.4 | 0.00 | 0.00 | 0.00 | 37 | 1014.8 |
| 20260503193752 | 13 | 333 | 4.8 | 27.4 | 0.00 | 0.00 | 0.00 | 41 | 1015.0 |
| 20260503193247 | 13 | 5 | 8.0 | 27.4 | 0.00 | 0.00 | 0.00 | 37 | 1015.0 |
| 20260503192741 | 13 | 5 | 8.0 | 27.4 | 0.00 | 0.00 | 0.00 | 36 | 1015.1 |
| 20260503192232 | 13 | 319 | 4.8 | 12.9 | 0.00 | 0.00 | 0.00 | 36 | 1015.3 |
| 20260503191733 | 13 | 338 | 6.4 | 35.4 | 0.00 | 0.00 | 0.00 | 39 | 1015.2 |
| 20260503191229 | 13 | 298 | 8.0 | 35.4 | 0.00 | 0.00 | 0.00 | 37 | 1015.1 |
| 20260503190729 | 13 | 278 | 11.3 | 37.0 | 0.00 | 0.00 | 0.00 | 37 | 1015.1 |
| 20260503190231 | 13 | 355 | 11.3 | 37.0 | 0.00 | 0.00 | 0.00 | 37 | 1015.2 |
| 20260503185729 | 14 | 256 | 6.4 | 19.3 | 0.00 | 0.00 | 0.00 | 36 | 1015.3 |
| 20260503185507 | 14 | 281 | 6.4 | 30.6 | 0.00 | 0.00 | 0.00 | 38 | 1015.1 |
| 20260503184729 | 14 | 292 | 9.7 | 30.6 | 0.00 | 0.00 | 0.00 | 38 | 1015.2 |
| 20260503184230 | 14 | 223 | 11.3 | 30.6 | 0.00 | 0.00 | 0.00 | 37 | 1015.2 |
| 20260503183729 | 14 | 298 | 9.7 | 30.6 | 0.00 | 0.00 | 0.00 | 37 | 1015.4 |
| 20260503183504 | 14 | 344 | 8.0 | 17.7 | 0.00 | 0.00 | 0.00 | 36 | 1015.7 |
| 20260503183004 | 14 | 310 | 8.0 | 17.7 | 0.00 | 0.00 | 0.00 | 38 | 1015.7 |
| 20260503182229 | 14 | 322 | 6.4 | 20.9 | 0.00 | 0.00 | 0.00 | 36 | 1015.4 |
| 20260503182003 | 13 | 279 | 6.4 | 20.9 | 0.00 | 0.00 | 0.00 | 41 | 1015.7 |
| 20260503181231 | 13 | 334 | 8.0 | 25.7 | 0.00 | 0.00 | 0.00 | 40 | 1015.4 |
| 20260503180730 | 13 | 281 | 9.7 | 25.7 | 0.00 | 0.00 | 0.00 | 37 | 1015.7 |
| 20260503180512 | 13 | 338 | 9.7 | 25.7 | 0.00 | 0.00 | 0.00 | 38 | 1015.8 |
| 20260503175731 | 13 | 257 | 8.0 | 25.7 | 0.00 | 0.00 | 0.00 | 40 | 1015.7 |
| 20260503175229 | 13 | 312 | 8.0 | 27.4 | 0.00 | 0.00 | 0.00 | 38 | 1015.8 |
| 20260503174729 | 13 | 276 | 9.7 | 27.4 | 0.00 | 0.00 | 0.00 | 38 | 1015.4 |
| 20260503174229 | 13 | 284 | 8.0 | 27.4 | 0.00 | 0.00 | 0.00 | 38 | 1015.7 |
| 20260503173730 | 13 | 286 | 6.4 | 22.5 | 0.00 | 0.00 | 0.00 | 43 | 1015.8 |
| 20260503173230 | 13 | 281 | 6.4 | 22.5 | 0.00 | 0.00 | 0.00 | 40 | 1015.8 |
| 20260503172728 | 12 | 331 | 6.4 | 22.5 | 0.00 | 0.00 | 0.00 | 42 | 1015.9 |
| 20260503172232 | 12 | 250 | 8.0 | 20.9 | 0.00 | 0.00 | 0.00 | 41 | 1016.0 |
| 20260503171729 | 12 | 281 | 8.0 | 17.7 | 0.00 | 0.00 | 0.00 | 42 | 1016.0 |
| 20260503171229 | 12 | 349 | 8.0 | 17.7 | 0.00 | 0.00 | 0.00 | 41 | 1016.2 |
| 20260503170729 | 12 | 355 | 6.4 | 17.7 | 0.00 | 0.00 | 0.00 | 43 | 1016.1 |
| 20260503170229 | 12 | 5 | 6.4 | 33.8 | 0.00 | 0.00 | 0.00 | 45 | 1015.8 |
| 20260503150728 | 9 | 169 | 8.0 | 20.9 | 0.00 | 0.00 | 0.00 | 53 | 1016.5 |
| 20260503150229 | 8 | 355 | 8.0 | 20.9 | 0.00 | 0.00 | 0.00 | 56 | 1016.6 |
| 20260503131231 | 7 | 333 | 11.3 | 22.5 | 0.00 | 0.00 | 0.00 | 58 | 1016.2 |
| 20260503130729 | 7 | 355 | 9.7 | 30.6 | 0.00 | 0.00 | 0.00 | 60 | 1016.3 |
| 20260503130229 | 7 | 346 | 11.3 | 30.6 | 0.00 | 0.00 | 0.00 | 60 | 1016.3 |
| 20260503120220 | 6 | 16 | 8.0 | 22.5 | 0.00 | 0.00 | 0.00 | 65 | 1015.8 |